Location: Altmatt
(47.1333°N, 8.7000°E)
Time: 02:35:19
(UTC+00:00)

Cosmos 1340 - Pass Details

Date: 13 July 2020
Orbit: 502 x 504 km, 81.2° (Epoch: 04 August)

Event Time Altitude Azimuth Distance (km) Brightness Sun altitude
Exits shadow 21:03:11 15° 102° (ESE) 1,418 4.5 -13.6°
Maximum altitude 21:03:54 16° 88° (E) 1,384 4.5 -13.6°
Drops below altitude 10° 21:06:14 10° 50° (NE) 1,721 5.4 -13.9°
Sets 21:09:00 0° 28° (NNE) 2,613 6.7 -14.1°
